Weather History for Tappahannock, VA

Change the Weather History Date:

Tuesday, November 20, 2012

  Actual Average (KRIC) Record (KRIC)
Temperature  
Mean Temperature 50 °F 49 °F  
Max Temperature 57 °F 60 °F 80 °F (1913)
Min Temperature 43 °F 38 °F 21 °F (1951)
Degree Days  
Heating Degree Days 16 16  
Month to date heating degree days 263  
Since 1 July heating degree days 496  
Cooling Degree Days 0 0  
Month to date cooling degree days 0  
Year to date cooling degree days 1543  
Moisture  
Dew Point 41 °F    
Average Humidity 72    
Maximum Humidity 93    
Minimum Humidity 54    
Precipitation  
Precipitation 0.00 in 0.11 in 1.79 in (1952)
Month to date precipitation 2.15  
Year to date precipitation 39.25  
Snow  
Snow 0.00 in 0.00 in T in (1947)
Month to date snowfall 0.1  
Since 1 July snowfall 0.1  
Snow Depth -    
Sea Level Pressure  
Sea Level Pressure 30.13 in    
Wind  
Wind Speed 3 mph (North)    
Max Wind Speed 8 mph    
Max Gust Speed -    
Visibility 10 miles    
Events      
T = Trace of Precipitation, MM = Missing Value Source: NWS Daily Summary

Daily Weather History Graph

Daily Weather History Graph

Search for Another Location

Airport:

Trip Planner

Search our weather history database for the weather conditions in past years. The results will help you decide how hot, cold, wet, or windy it might be!

Date:

Astronomy

Nov. 20, 2012 Rise Set
Actual Time 6:53 AM EST 4:52 PM EST
Civil Twilight 6:25 AM EST 5:20 PM EST
Nautical Twilight 5:53 AM EST 5:53 PM EST
Astronomical Twilight 5:22 AM EST 6:24 PM EST
Moon 12:30 PM EST (11/20) No Moon Set
Length of Visible Light 10h 55m
Length of Day
9h 58m
Waxing Crescent, 51% of the Moon is Illuminated
Nov 20
Waxing Crescent
Nov 28
Full
Dec 6
Last Quarter
Dec 13
New
Dec 20
First Quarter

Hourly Weather History & Observations

Time (EST) Temp. Dew Point Humidity Pressure Visibility Wind Dir Wind Speed Gust Speed Precip Events Conditions
12:15 AM 49.6 °F 39.6 °F 68% 30.20 in 10.0 mi North 3.5 mph - N/A   Overcast
12:35 AM 49.5 °F 39.6 °F 69% 30.20 in 10.0 mi North 3.5 mph - N/A   Overcast
12:55 AM 49.3 °F 39.6 °F 69% 30.19 in 10.0 mi NNW 3.5 mph - N/A   Overcast
1:15 AM 49.1 °F 39.6 °F 70% 30.18 in 10.0 mi North 4.6 mph - N/A   Overcast
1:35 AM 48.9 °F 39.6 °F 70% 30.17 in 10.0 mi North 4.6 mph - N/A   Overcast
1:55 AM 48.7 °F 39.6 °F 71% 30.17 in 10.0 mi North 5.8 mph - N/A   Overcast
2:15 AM 48.6 °F 39.6 °F 71% 30.18 in 10.0 mi Calm Calm - N/A   Overcast
2:35 AM 48.6 °F 39.7 °F 72% 30.17 in 10.0 mi Calm Calm - N/A   Overcast
2:55 AM 48.4 °F 39.7 °F 72% 30.17 in 10.0 mi Calm Calm - N/A   Overcast
3:15 AM 48.2 °F 40.1 °F 74% 30.16 in 10.0 mi Calm Calm - N/A   Overcast
3:35 AM 48.2 °F 40.1 °F 74% 30.16 in 10.0 mi Calm Calm - N/A   Overcast
7:15 AM 47.1 °F 40.5 °F 78% 30.17 in 10.0 mi Calm Calm - N/A   Overcast
7:35 AM 47.3 °F 40.8 °F 78% 30.17 in 10.0 mi Calm Calm - N/A   Overcast
7:55 AM 47.5 °F 41.2 °F 79% 30.18 in 10.0 mi Calm Calm - N/A   Overcast
8:15 AM 48.2 °F 41.7 °F 78% 30.17 in 10.0 mi North 3.5 mph - N/A   Overcast
8:35 AM 49.1 °F 42.1 °F 77% 30.17 in 10.0 mi North 3.5 mph - N/A   Overcast
8:55 AM 49.3 °F 42.1 °F 76% 30.17 in 10.0 mi North 4.6 mph - N/A   Overcast
9:15 AM 50.0 °F 42.8 °F 76% 30.17 in 10.0 mi NNE 4.6 mph - N/A   Overcast
9:35 AM 50.2 °F 42.8 °F 76% 30.17 in 10.0 mi North 3.5 mph - N/A   Overcast
9:55 AM 50.5 °F 43.0 °F 75% 30.17 in 10.0 mi North 4.6 mph - N/A   Overcast
10:15 AM 50.9 °F 43.0 °F 74% 30.16 in 10.0 mi Calm Calm - N/A   Overcast
10:35 AM 51.8 °F 43.2 °F 72% 30.16 in 10.0 mi Calm Calm - N/A   Overcast
10:55 AM 52.9 °F 43.3 °F 70% 30.16 in 10.0 mi North 4.6 mph - N/A   Overcast
11:15 AM 53.2 °F 43.5 °F 70% 30.15 in 10.0 mi North 3.5 mph - N/A   Overcast
11:35 AM 54.0 °F 43.0 °F 66% 30.15 in 10.0 mi NNW 4.6 mph - N/A   Overcast
11:55 AM 54.5 °F 42.8 °F 65% 30.14 in 10.0 mi NW 4.6 mph - N/A   Overcast
12:15 PM 55.4 °F 41.9 °F 60% 30.13 in 10.0 mi North 3.5 mph - N/A   Overcast
12:35 PM 55.0 °F 40.5 °F 58% 30.12 in 10.0 mi NNE 4.6 mph - N/A   Mostly Cloudy
12:55 PM 56.3 °F 40.3 °F 55% 30.11 in 10.0 mi NW 4.6 mph - N/A   Scattered Clouds
1:15 PM 55.8 °F 39.6 °F 55% 30.11 in 10.0 mi NW 3.5 mph - N/A   Scattered Clouds
1:35 PM 55.9 °F 40.1 °F 55% 30.10 in 10.0 mi North 4.6 mph - N/A   Mostly Cloudy
1:55 PM 56.1 °F 40.5 °F 56% 30.10 in 10.0 mi North 4.6 mph - N/A   Scattered Clouds
2:15 PM 56.5 °F 40.1 °F 54% 30.09 in 10.0 mi NNW 5.8 mph - N/A   Clear
2:35 PM 56.8 °F 40.1 °F 54% 30.08 in 10.0 mi North 8.1 mph - N/A   Scattered Clouds
2:55 PM 55.9 °F 39.4 °F 54% 30.09 in 10.0 mi NNW 5.8 mph - N/A   Scattered Clouds
3:15 PM 55.4 °F 39.4 °F 55% 30.09 in 10.0 mi NW 3.5 mph - N/A   Clear
3:35 PM 55.0 °F 39.9 °F 57% 30.09 in 10.0 mi NNW 4.6 mph - N/A   Clear
3:55 PM 54.5 °F 40.3 °F 59% 30.08 in 10.0 mi North 3.5 mph - N/A   Clear
4:15 PM 54.5 °F 40.3 °F 59% 30.09 in 10.0 mi Calm Calm - N/A   Clear
4:35 PM 53.2 °F 40.5 °F 62% 30.09 in 10.0 mi Calm Calm - N/A   Clear
4:55 PM 51.6 °F 41.2 °F 68% 30.08 in 10.0 mi Calm Calm - N/A   Clear
5:15 PM 51.4 °F 41.0 °F 68% 30.08 in 10.0 mi Calm Calm - N/A   Clear
5:35 PM 50.7 °F 41.7 °F 71% 30.09 in 10.0 mi NE 5.8 mph - N/A   Clear
5:55 PM 50.2 °F 41.9 °F 73% 30.10 in 10.0 mi Calm Calm - N/A   Clear
6:15 PM 48.9 °F 42.1 °F 77% 30.11 in 10.0 mi Calm Calm - N/A   Clear
6:35 PM 47.1 °F 41.7 °F 81% 30.12 in 10.0 mi Calm Calm - N/A   Mostly Cloudy
6:55 PM 48.6 °F 41.9 °F 78% 30.11 in 10.0 mi Calm Calm - N/A   Overcast
7:15 PM 47.5 °F 41.9 °F 81% 30.12 in 10.0 mi Calm Calm - N/A   Overcast
7:35 PM 46.9 °F 42.1 °F 83% 30.12 in 10.0 mi Calm Calm - N/A   Overcast
7:55 PM 45.0 °F 41.5 °F 88% 30.12 in 10.0 mi Calm Calm - N/A   Mostly Cloudy
8:15 PM 44.8 °F 42.3 °F 91% 30.12 in 10.0 mi Calm Calm - N/A   Mostly Cloudy
8:35 PM 43.7 °F 41.7 °F 93% 30.13 in 10.0 mi Calm Calm - N/A   Overcast
8:55 PM 45.7 °F 43.5 °F 92% 30.13 in 10.0 mi Calm Calm - N/A   Overcast
9:15 PM 46.6 °F 43.5 °F 89% 30.13 in 10.0 mi Calm Calm - N/A   Overcast
9:35 PM 47.3 °F 43.2 °F 86% 30.13 in 10.0 mi Calm Calm - N/A   Overcast
9:55 PM 47.8 °F 42.3 °F 81% 30.13 in 10.0 mi Calm Calm - N/A   Overcast
10:15 PM 48.2 °F 41.9 °F 79% 30.13 in 10.0 mi Calm Calm - N/A   Overcast
10:35 PM 48.2 °F 41.7 °F 78% 30.12 in 10.0 mi Calm Calm - N/A   Overcast
10:55 PM 48.2 °F 41.4 °F 77% 30.13 in 10.0 mi Calm Calm - N/A   Overcast
11:15 PM 46.9 °F 41.4 °F 81% 30.13 in 10.0 mi Calm Calm - N/A   Overcast
11:35 PM 45.3 °F 41.2 °F 85% 30.13 in 10.0 mi Calm Calm - N/A   Scattered Clouds
11:55 PM 43.9 °F 41.2 °F 90% 30.12 in 10.0 mi Calm Calm - N/A   Clear